World > North America > United States > Pennsylvania

Byrnedale, Pennsylvania Regional Weather

Lat: 41.29N, Lon: 78.5W
Wx Zone: PAZ010Web Search

Helpful Tip: Type the letters wx in the search engine next time you need to find us.

Feedback


°F Click to change Byrnedale hourly weather to Imperial units.Click to change Byrnedale hourly weather to Metric units. °C
Byrnedale Weather Map
UTC Time: 5/6/2021, 03:46
Your Time:

Byrnedale, PA Regional Weather

Expires:202105060400;;663465
ASUS41 KCTP 060310
RWRCTP

REGIONAL WEATHER ROUNDUP
NATIONAL WEATHER SERVICE STATE COLLEGE PA
1100 PM EDT WED MAY 05 2021

Note: "fair" indicates few or no clouds below 12,000 feet with no 
significant weather and/or obstructions to visibility.

* = STATION THAT DOES NOT REPORT PRECIPITATION /E.G. RAIN...SNOW...ETC/
    THUNDER OR FOG.


PAZ004>006-010>012-017>019-024>028-033>037-041-042-045-046-049>053-060400-
CENTRAL PENNSYLVANIA
  
CITY           SKY/WX    TMP DP  RH WIND       PRES   REMARKS
BRADFORD       LGT RAIN  41  36  82 NW10      30.01R                  
ST MARYS       LGT RAIN  43  36  75 NW12      30.04R                  
DUBOIS         CLOUDY    43  35  73 NW12      30.02R                  
CLEARFIELD     CLOUDY    46  35  65 NW10      30.02R                  
JOHNSTOWN      CLOUDY    42  34  73 NW14      30.02R                  
SOMERSET       CLOUDY    41  36  81 NW10G21   30.04R                  
ALTOONA        PTCLDY    46  35  65 NW13      30.02R                  
STATE COLLEGE  CLOUDY    48  36  61 NW9G18    30.01R                  
REEDSVILLE     MOCLDY    50 N/A N/A NW9G18    29.99R                  
WELLSBORO      MOCLDY    45  37  76 NW14G23   29.96R                  
WILLIAMSPORT   CLOUDY    51  37  58 W10G20    29.95R                  
SELINSGROVE    CLOUDY    52  36  54 MISG      29.97R                  
FT INDIANTOWN  CLOUDY    54  36  50 NW6       29.95R                  
CAPITAL CITY   PTCLDY    56  34  43 NW14      29.94R                  
HARRISBURG     MOCLDY    57  35  43 NW18G28   29.94R                  
YORK           CLOUDY    55  37  50 NW7       29.95R                  
$$


SKY/WX - Weather  TMP - Temperature  DP - Dew Point  RH - Relative Humidity
WIND - Wind Direction/Speed PRES - Barometric Pressure VSB - Visibility
WCI - Wind Chill Index E13G22 Wind - East Wind 13 mph/Gusts of 22 mph